Starlink 31463

operational
NORAD ID: 59296 Int'l Des: 2024-056 Owner: SPXS Country: US Constellation: starlink
LEOCIRCULAR

关于 Starlink 31463

正在加载描述...

实时位置

正在加载3D地球...

即将过境

高度历史

Altitude vs Time

uPlot chart will show altitude changes over time

两行轨道根数

1 59296U 24056A 25304.83662291 -.00005288 00000-0 -18297-3 0 9994
2 59296 42.9987 234.4524 0000843 293.2623 66.8140 15.27545796 91497
Epoch: Oct 31, 2025 • Age: 21 hours

当前状态

高度 486.7 km
速度 7.63 km/s
星下点 42.76°N, 16.21°E
发射日期 Mar 24, 2024
运行时间 1.6 years
类型 internet

技术详情

分类 Payload
质量 730.00 kg
干质量 700.00 kg
总质量 730.00 kg
长度 0.30 m
直径 4.10 m
跨度 29.00 m
形状 Box + pan
制造商 SPXS
平台类型 Starlink V2M
阶段状态 In Orbit
所有者/国家 SPXS/US

大型星座

Loading constellations...